When you browse on this site, cookies collect data to enhance your experience and personalize the content and advertising you see.
Visit our Privacy Policy to learn more. By continuing to use the site, you agree to this use of cookies and data.
  • en Suisse
  • Liste des pays
  • À 7 jours
  • Température de l'eau
  • Carte météo
  • Widgets météo
  • user-avatar
    Se connecter

    Météo par heure à Albany

    Ce jour, 20 Février, Jeudi

    Heure Température Précipitation Vent Pression Humidité
    00:00 +18°C° 0 mm 7 m/s 760 mmHg 76%
    01:00 +18°C° 0 mm 7 m/s 760 mmHg 77%
    02:00 +18°C° 0 mm 7 m/s 760 mmHg 76%
    03:00 +19°C° 0 mm 6 m/s 760 mmHg 76%
    04:00 +19°C° 0 mm 6 m/s 760 mmHg 76%
    05:00 +19°C° 0 mm 6 m/s 760 mmHg 75%
    06:00 +19°C° 0 mm 6 m/s 760 mmHg 74%
    07:00 +20°C° 0 mm 6 m/s 760 mmHg 73%
    08:00 +20°C° 0 mm 6 m/s 761 mmHg 72%
    09:00 +21°C° 0 mm 7 m/s 761 mmHg 69%
    10:00 +21°C° 0 mm 7 m/s 761 mmHg 67%
    11:00 +22°C° 0 mm 7 m/s 761 mmHg 65%
    12:00 +23°C° 0 mm 7 m/s 761 mmHg 62%
    13:00 +23°C° 0 mm 7 m/s 760 mmHg 60%
    14:00 +24°C° 0 mm 8 m/s 760 mmHg 58%
    15:00 +24°C° 0 mm 8 m/s 760 mmHg 60%
    16:00 +23°C° 0 mm 7 m/s 760 mmHg 62%
    17:00 +22°C° 0 mm 7 m/s 760 mmHg 64%
    18:00 +21°C° 0 mm 7 m/s 760 mmHg 70%
    19:00 +20°C° 0 mm 7 m/s 760 mmHg 75%
    20:00 +17°C° 0 mm 7 m/s 760 mmHg 81%
    21:00 +17°C° 0 mm 7 m/s 761 mmHg 81%
    22:00 +17°C° 0 mm 7 m/s 761 mmHg 82%
    23:00 +17°C° 0 mm 7 m/s 761 mmHg 83%

    Demain, 21 Février, Vendredi

    Heure Température Précipitation Vent Pression Humidité
    00:00 +17°C° 0 mm 6 m/s 761 mmHg 84%
    01:00 +16°C° 0 mm 6 m/s 760 mmHg 86%
    02:00 +16°C° 0 mm 6 m/s 760 mmHg 88%
    03:00 +16°C° 0 mm 6 m/s 760 mmHg 88%
    04:00 +16°C° 0 mm 6 m/s 760 mmHg 89%
    05:00 +16°C° 0 mm 6 m/s 761 mmHg 90%
    06:00 +17°C° 0 mm 6 m/s 761 mmHg 82%
    07:00 +19°C° 0 mm 6 m/s 761 mmHg 73%
    08:00 +21°C° 0 mm 6 m/s 761 mmHg 65%
    09:00 +23°C° 0 mm 5 m/s 761 mmHg 57%
    10:00 +27°C° 0 mm 5 m/s 760 mmHg 48%
    11:00 +29°C° 0 mm 5 m/s 760 mmHg 40%
    12:00 +29°C° 0 mm 6 m/s 760 mmHg 40%
    13:00 +30°C° 0 mm 6 m/s 759 mmHg 40%
    14:00 +30°C° 0 mm 7 m/s 758 mmHg 40%
    21:00 +21°C° 0 mm 5 m/s 758 mmHg 68%
    22:00 +20°C° 0 mm 6 m/s 759 mmHg 72%
    23:00 +20°C° 0 mm 5 m/s 759 mmHg 74%

    Après-demain, 22 Février, Samedi

    Heure Température Précipitation Vent Pression Humidité
    00:00 +19°C° 0 mm 5 m/s 758 mmHg 76%
    01:00 +19°C° 0 mm 4 m/s 758 mmHg 78%
    02:00 +19°C° 0 mm 4 m/s 757 mmHg 79%
    03:00 +19°C° 0 mm 3 m/s 757 mmHg 78%
    04:00 +20°C° 0 mm 3 m/s 757 mmHg 76%
    05:00 +20°C° 0 mm 2 m/s 757 mmHg 74%
    06:00 +21°C° 0 mm 2 m/s 757 mmHg 68%
    07:00 +23°C° 0 mm 2 m/s 758 mmHg 61%
    08:00 +24°C° 0 mm 2 m/s 758 mmHg 55%
    09:00 +25°C° 0 mm 3 m/s 758 mmHg 50%
    10:00 +27°C° 0 mm 3 m/s 758 mmHg 45%
    11:00 +28°C° 0 mm 3 m/s 758 mmHg 40%
    12:00 +28°C° 0 mm 4 m/s 758 mmHg 41%
    13:00 +28°C° 0 mm 5 m/s 757 mmHg 42%
    14:00 +28°C° 0 mm 5 m/s 757 mmHg 43%
    15:00 +28°C° 0 mm 5 m/s 757 mmHg 47%
    16:00 +27°C° 0 mm 5 m/s 756 mmHg 51%
    17:00 +26°C° 0 mm 4 m/s 756 mmHg 55%
    18:00 +25°C° 0 mm 4 m/s 756 mmHg 62%
    19:00 +22°C° 0 mm 3 m/s 756 mmHg 70%
    20:00 +21°C° 0 mm 3 m/s 757 mmHg 77%
    21:00 +20°C° 0 mm 2 m/s 757 mmHg 80%
    22:00 +20°C° 0 mm 2 m/s 757 mmHg 84%
    23:00 +20°C° 0 mm 1 m/s 757 mmHg 88%

    23 Février, Dimanche

    Heure Température Précipitation Vent Pression Humidité
    00:00 +20°C° 0 mm 1 m/s 757 mmHg 89%
    01:00 +19°C° 0 mm 1 m/s 757 mmHg 90%
    02:00 +19°C° 0 mm 1 m/s 757 mmHg 92%
    03:00 +18°C° 0 mm 2 m/s 757 mmHg 92%
    04:00 +18°C° 0 mm 2 m/s 757 mmHg 93%
    05:00 +17°C° 0 mm 2 m/s 757 mmHg 93%
    06:00 +19°C° 0 mm 2 m/s 758 mmHg 86%
    07:00 +20°C° 0 mm 2 m/s 758 mmHg 79%
    08:00 +23°C° 0 mm 2 m/s 758 mmHg 71%
    09:00 +24°C° 0 mm 3 m/s 758 mmHg 65%
    10:00 +26°C° 0 mm 4 m/s 758 mmHg 59%
    11:00 +28°C° 0 mm 5 m/s 758 mmHg 52%
    12:00 +27°C° 0.1 mm 6 m/s 758 mmHg 54%
    13:00 +27°C° 0.1 mm 6 m/s 757 mmHg 55%
    14:00 +27°C° 0.1 mm 7 m/s 757 mmHg 56%
    15:00 +26°C° 0.2 mm 6 m/s 757 mmHg 60%
    16:00 +24°C° 0.2 mm 6 m/s 757 mmHg 63%
    17:00 +23°C° 0.2 mm 6 m/s 757 mmHg 67%
    18:00 +22°C° 0 mm 6 m/s 758 mmHg 74%
    19:00 +21°C° 0 mm 6 m/s 758 mmHg 80%
    20:00 +20°C° 0 mm 6 m/s 759 mmHg 87%
    21:00 +20°C° 0 mm 6 m/s 759 mmHg 86%
    22:00 +20°C° 0 mm 6 m/s 759 mmHg 85%
    23:00 +20°C° 0 mm 6 m/s 759 mmHg 84%

    24 Février, Lundi

    Heure Température Précipitation Vent Pression Humidité
    00:00 +20°C° 0 mm 6 m/s 759 mmHg 84%
    01:00 +20°C° 0 mm 6 m/s 759 mmHg 83%
    02:00 +20°C° 0 mm 5 m/s 759 mmHg 83%
    03:00 +20°C° 0 mm 6 m/s 759 mmHg 82%
    04:00 +20°C° 0 mm 6 m/s 759 mmHg 81%
    05:00 +20°C° 0 mm 6 m/s 759 mmHg 80%
    06:00 +20°C° 0 mm 6 m/s 759 mmHg 80%
    07:00 +20°C° 0 mm 6 m/s 760 mmHg 81%
    08:00 +21°C° 0 mm 6 m/s 760 mmHg 81%
    09:00 +21°C° 0.1 mm 7 m/s 760 mmHg 81%
    10:00 +21°C° 0.1 mm 7 m/s 760 mmHg 81%
    11:00 +21°C° 0.1 mm 7 m/s 760 mmHg 81%
    12:00 +21°C° 0.2 mm 7 m/s 759 mmHg 81%
    13:00 +21°C° 0.2 mm 7 m/s 759 mmHg 81%
    14:00 +22°C° 0.2 mm 7 m/s 759 mmHg 81%
    15:00 +21°C° 0 mm 7 m/s 759 mmHg 82%
    16:00 +21°C° 0 mm 7 m/s 759 mmHg 82%
    17:00 +21°C° 0 mm 7 m/s 759 mmHg 82%
    18:00 +21°C° 0 mm 6 m/s 759 mmHg 83%
    19:00 +21°C° 0 mm 6 m/s 759 mmHg 84%
    20:00 +20°C° 0 mm 6 m/s 760 mmHg 84%
    21:00 +20°C° 0 mm 6 m/s 760 mmHg 84%
    22:00 +20°C° 0 mm 6 m/s 760 mmHg 84%
    23:00 +20°C° 0 mm 6 m/s 761 mmHg 84%

    25 Février, Mardi

    Heure Température Précipitation Vent Pression Humidité
    00:00 +20°C° 0 mm 6 m/s 761 mmHg 85%
    01:00 +20°C° 0 mm 6 m/s 760 mmHg 85%
    02:00 +20°C° 0 mm 6 m/s 760 mmHg 85%
    03:00 +20°C° 0 mm 6 m/s 760 mmHg 86%
    04:00 +20°C° 0 mm 6 m/s 760 mmHg 86%
    05:00 +20°C° 0 mm 6 m/s 760 mmHg 86%
    06:00 +20°C° 0 mm 6 m/s 761 mmHg 85%
    07:00 +20°C° 0 mm 6 m/s 761 mmHg 83%
    08:00 +20°C° 0 mm 6 m/s 761 mmHg 82%
    09:00 +21°C° 0.1 mm 6 m/s 761 mmHg 80%
    10:00 +21°C° 0.1 mm 6 m/s 762 mmHg 78%
    11:00 +21°C° 0.1 mm 6 m/s 762 mmHg 76%
    12:00 +22°C° 0 mm 6 m/s 762 mmHg 75%
    13:00 +22°C° 0 mm 6 m/s 761 mmHg 74%
    14:00 +22°C° 0 mm 7 m/s 761 mmHg 73%
    15:00 +22°C° 0 mm 7 m/s 761 mmHg 74%
    16:00 +21°C° 0 mm 7 m/s 761 mmHg 76%
    17:00 +21°C° 0 mm 7 m/s 761 mmHg 77%
    18:00 +21°C° 0 mm 7 m/s 761 mmHg 78%
    19:00 +20°C° 0 mm 6 m/s 762 mmHg 80%
    20:00 +20°C° 0 mm 6 m/s 762 mmHg 82%
    21:00 +20°C° 0 mm 6 m/s 762 mmHg 82%
    22:00 +20°C° 0 mm 7 m/s 762 mmHg 82%
    23:00 +20°C° 0 mm 7 m/s 762 mmHg 82%
    Voir plus